Location: Amberg
(48.0613°N, 10.6820°E)
Time: 23:39:42
(UTC+00:00)

Cosmos 2151 Rocket - Pass Details

Date: 18 November 2025
Orbit: 612 x 635 km, 82.5° (Epoch: 05 December)

Event Time Altitude Azimuth Distance (km) Brightness Sun altitude
Rises 17:53:45 0° 201° (SSW) 2,917 7.3 -22.8°
Reaches altitude 10° 17:56:02 10° 206° (SSW) 2,016 6.5 -23.1°
Maximum altitude 18:00:24 52° 283° (WNW) 798 4.4 -23.9°
Drops below altitude 10° 18:04:49 10° 1° (N) 2,035 6.2 -24.6°
Enters shadow 18:05:04 - 1° (N) 2,131 6.3 -24.6°
